UAL1639 KLAX-KIGM

Flight info

Callsign UAL1639
Flight time 1h 4m
Altitude 23000
Route SKWRL2 VALEY SLAPP VVERA SSETH HEC ETINE
Aircraft DH8D/M-SDE2E3FGRY/H

Departure

Time 2026-04-30 18:24
Airport Los Angeles International Airport (KLAX)

Arrival

Time 2026-04-30 19:29
Airport Kingman Airport (KIGM)
Time Latitude Longitude Altitude Speed Heading
2026-04-30 17:53 33.94451 -118.43004 109 ft 0 kts 83°
2026-04-30 18:11 33.94448 -118.43034 109 ft 2 kts 83°
2026-04-30 18:11 33.94442 -118.43080 108 ft 2 kts 62°
2026-04-30 18:12 33.94409 -118.43099 108 ft 0 kts 352°
2026-04-30 18:16 33.94493 -118.43113 109 ft 11 kts 354°
2026-04-30 18:17 33.94568 -118.43110 110 ft 10 kts 22°
2026-04-30 18:17 33.94604 -118.43044 111 ft 9 kts 80°
2026-04-30 18:17 33.94620 -118.42869 112 ft 11 kts 85°
2026-04-30 18:18 33.94627 -118.42773 113 ft 11 kts 84°
2026-04-30 18:18 33.94640 -118.42668 114 ft 14 kts 81°
2026-04-30 18:18 33.94653 -118.42535 116 ft 17 kts 83°
2026-04-30 18:18 33.94669 -118.42379 117 ft 20 kts 83°
2026-04-30 18:19 33.94687 -118.42203 119 ft 21 kts 83°
2026-04-30 18:19 33.94704 -118.42017 121 ft 23 kts 84°
2026-04-30 18:19 33.94726 -118.41819 123 ft 24 kts 82°
2026-04-30 18:19 33.94749 -118.41612 124 ft 25 kts 83°
2026-04-30 18:20 33.94774 -118.41398 125 ft 25 kts 80°
2026-04-30 18:20 33.94803 -118.41202 125 ft 22 kts 82°
2026-04-30 18:20 33.94822 -118.41024 126 ft 20 kts 83°
2026-04-30 18:20 33.94837 -118.40862 125 ft 19 kts 84°
2026-04-30 18:21 33.94856 -118.40707 125 ft 18 kts 81°
2026-04-30 18:21 33.94875 -118.40557 124 ft 17 kts 82°
2026-04-30 18:21 33.94890 -118.40411 123 ft 17 kts 85°
2026-04-30 18:21 33.94899 -118.40267 122 ft 15 kts 85°
2026-04-30 18:22 33.94911 -118.40147 121 ft 13 kts 80°
2026-04-30 18:22 33.94953 -118.40067 120 ft 4 kts 356°
2026-04-30 18:22 33.94999 -118.40073 120 ft 8 kts 353°
2026-04-30 18:23 33.95025 -118.40115 120 ft 6 kts 265°
2026-04-30 18:23 33.95020 -118.40160 121 ft 6 kts 263°
2026-04-30 18:23 33.94997 -118.40385 123 ft 65 kts 264°
2026-04-30 18:23 33.94912 -118.41245 126 ft 136 kts 265°
2026-04-30 18:24 33.94637 -118.43941 705 ft 175 kts 264°
2026-04-30 18:24 33.94479 -118.45412 1212 ft 183 kts 262°
2026-04-30 18:24 33.94286 -118.46908 1861 ft 182 kts 263°
2026-04-30 18:25 33.94192 -118.48443 2391 ft 186 kts 282°
2026-04-30 18:25 33.95822 -118.50713 3336 ft 183 kts 320°
2026-04-30 18:25 33.96790 -118.51739 3798 ft 187 kts 320°
2026-04-30 18:26 33.98756 -118.53822 4760 ft 191 kts 321°
2026-04-30 18:26 33.99749 -118.54878 5254 ft 193 kts 322°
2026-04-30 18:26 34.00797 -118.55871 5734 ft 192 kts 336°
2026-04-30 18:27 34.03320 -118.56914 6655 ft 193 kts 346°
2026-04-30 18:27 34.04599 -118.57392 7093 ft 196 kts 346°
2026-04-30 18:28 34.07144 -118.56979 7909 ft 193 kts 31°
2026-04-30 18:28 34.08313 -118.56186 8396 ft 192 kts 31°
2026-04-30 18:28 34.10674 -118.54584 9253 ft 198 kts 31°
2026-04-30 18:29 34.11887 -118.53762 9682 ft 199 kts 32°
2026-04-30 18:29 34.15521 -118.51309 10976 ft 201 kts 31°
2026-04-30 18:30 34.17575 -118.49925 11611 ft 205 kts 31°
2026-04-30 18:30 34.20477 -118.47970 12497 ft 207 kts 30°
2026-04-30 18:31 34.21746 -118.47115 12832 ft 209 kts 30°
2026-04-30 18:31 34.24301 -118.45392 13540 ft 210 kts 30°
2026-04-30 18:32 34.26922 -118.43835 14231 ft 210 kts 25°
2026-04-30 18:32 34.28261 -118.43111 14560 ft 210 kts 25°
2026-04-30 18:32 34.30937 -118.41656 15158 ft 212 kts 25°
2026-04-30 18:33 34.32286 -118.40917 15464 ft 212 kts 25°
2026-04-30 18:33 34.34981 -118.39436 16058 ft 211 kts 25°
2026-04-30 18:33 34.36330 -118.38693 16298 ft 213 kts 25°
2026-04-30 18:34 34.37662 -118.37958 16595 ft 212 kts 25°
2026-04-30 18:34 34.40363 -118.36465 17089 ft 213 kts 25°
2026-04-30 18:34 34.41720 -118.35713 17349 ft 214 kts 25°
2026-04-30 18:35 34.43075 -118.34963 17566 ft 214 kts 25°
2026-04-30 18:35 34.44416 -118.34219 17824 ft 213 kts 24°
2026-04-30 18:35 34.45752 -118.33424 18007 ft 215 kts 33°
2026-04-30 18:36 34.47107 -118.30167 18299 ft 226 kts 70°
2026-04-30 18:36 34.47522 -118.28318 18504 ft 227 kts 70°
2026-04-30 18:36 34.48348 -118.24648 18927 ft 228 kts 70°
2026-04-30 18:37 34.48770 -118.22787 19123 ft 229 kts 70°
2026-04-30 18:37 34.49193 -118.20928 19298 ft 229 kts 70°
2026-04-30 18:37 34.49613 -118.19089 19459 ft 230 kts 70°
2026-04-30 18:37 34.50042 -118.17208 19657 ft 229 kts 70°
2026-04-30 18:38 34.50463 -118.15366 19799 ft 231 kts 70°
2026-04-30 18:38 34.50894 -118.13478 19954 ft 231 kts 70°
2026-04-30 18:38 34.51324 -118.11598 20099 ft 232 kts 70°
2026-04-30 18:38 34.51754 -118.09717 20263 ft 231 kts 70°
2026-04-30 18:39 34.52178 -118.07861 20400 ft 233 kts 70°
2026-04-30 18:39 34.52610 -118.05974 20520 ft 233 kts 70°
2026-04-30 18:39 34.53042 -118.04077 20656 ft 233 kts 70°
2026-04-30 18:39 34.53476 -118.02177 20793 ft 234 kts 70°
2026-04-30 18:40 34.53912 -118.00253 21133 ft 239 kts 70°
2026-04-30 18:40 34.54349 -117.98314 21731 ft 238 kts 70°
2026-04-30 18:40 34.54786 -117.96382 22222 ft 239 kts 70°
2026-04-30 18:40 34.55225 -117.94446 22738 ft 238 kts 70°
2026-04-30 18:41 34.55660 -117.92541 22937 ft 234 kts 69°
2026-04-30 18:41 34.56094 -117.90641 23008 ft 233 kts 69°
2026-04-30 18:41 34.56526 -117.88744 23031 ft 235 kts 69°
2026-04-30 18:41 34.56961 -117.86835 23040 ft 237 kts 70°
2026-04-30 18:42 34.57402 -117.84891 23048 ft 240 kts 70°
2026-04-30 18:42 34.58298 -117.80946 23033 ft 245 kts 70°
2026-04-30 18:42 34.58749 -117.78953 23035 ft 248 kts 70°
2026-04-30 18:45 34.63019 -117.57510 23020 ft 273 kts 72°
2026-04-30 18:45 34.63450 -117.55251 23022 ft 275 kts 72°
2026-04-30 18:45 34.63881 -117.52985 23024 ft 277 kts 72°
2026-04-30 18:46 34.64312 -117.50722 23024 ft 279 kts 72°
2026-04-30 18:46 34.64750 -117.48421 23019 ft 280 kts 72°
2026-04-30 18:46 34.65190 -117.46104 23020 ft 281 kts 72°
2026-04-30 18:46 34.65625 -117.43808 23029 ft 281 kts 72°
2026-04-30 18:47 34.66066 -117.41486 23028 ft 283 kts 72°
2026-04-30 18:47 34.66505 -117.39170 23021 ft 283 kts 72°
2026-04-30 18:47 34.66951 -117.36813 23027 ft 284 kts 72°
2026-04-30 18:47 34.67393 -117.34475 23030 ft 285 kts 73°
2026-04-30 18:48 34.67834 -117.32140 23027 ft 286 kts 73°
2026-04-30 18:48 34.68280 -117.29775 23018 ft 288 kts 73°
2026-04-30 18:48 34.68729 -117.27396 23018 ft 289 kts 73°
2026-04-30 18:48 34.69177 -117.25012 23017 ft 290 kts 73°
2026-04-30 18:49 34.69624 -117.22633 23010 ft 291 kts 73°
2026-04-30 18:49 34.70076 -117.20229 23007 ft 291 kts 73°
2026-04-30 18:49 34.70523 -117.17850 23011 ft 291 kts 73°
2026-04-30 18:49 34.70971 -117.15456 23009 ft 292 kts 73°
2026-04-30 18:50 34.71423 -117.13042 23007 ft 292 kts 73°
2026-04-30 18:50 34.71875 -117.10630 23004 ft 292 kts 73°
2026-04-30 18:50 34.72319 -117.08251 23004 ft 292 kts 73°
2026-04-30 18:50 34.72772 -117.05825 23006 ft 292 kts 73°
2026-04-30 18:51 34.73219 -117.03424 23005 ft 292 kts 73°
2026-04-30 18:51 34.73662 -117.01019 23008 ft 292 kts 74°
2026-04-30 18:51 34.73980 -116.98598 23006 ft 292 kts 78°
2026-04-30 18:51 34.74237 -116.96153 23007 ft 291 kts 78°
2026-04-30 18:52 34.74495 -116.93713 23011 ft 291 kts 78°
2026-04-30 18:52 34.74757 -116.91270 23014 ft 290 kts 78°
2026-04-30 18:52 34.75018 -116.88854 23014 ft 289 kts 78°
2026-04-30 18:52 34.75280 -116.86443 23015 ft 288 kts 78°
2026-04-30 18:53 34.75546 -116.84023 23020 ft 287 kts 78°
2026-04-30 18:53 34.75810 -116.81618 23023 ft 287 kts 78°
2026-04-30 18:53 34.76071 -116.79247 23024 ft 287 kts 78°
2026-04-30 18:53 34.76336 -116.76842 23026 ft 286 kts 78°
2026-04-30 18:54 34.76599 -116.74453 23027 ft 286 kts 78°
2026-04-30 18:54 34.76865 -116.72046 23024 ft 285 kts 78°
2026-04-30 18:54 34.77127 -116.69662 23021 ft 285 kts 78°
2026-04-30 18:54 34.77387 -116.67295 23018 ft 285 kts 78°
2026-04-30 18:55 34.77651 -116.64900 23007 ft 286 kts 78°
2026-04-30 18:55 34.78178 -116.60086 23002 ft 287 kts 78°
2026-04-30 18:55 34.78442 -116.57674 22994 ft 288 kts 78°
2026-04-30 18:56 34.78967 -116.52862 22980 ft 289 kts 78°
2026-04-30 18:56 34.79230 -116.50450 22974 ft 289 kts 78°
2026-04-30 18:56 34.79494 -116.48013 22971 ft 289 kts 78°
2026-04-30 18:57 34.80124 -116.43209 22966 ft 287 kts 74°
2026-04-30 18:57 34.80533 -116.40825 22958 ft 287 kts 74°
2026-04-30 18:57 34.80935 -116.38466 22959 ft 286 kts 74°
2026-04-30 18:58 34.81732 -116.33724 22955 ft 285 kts 75°
2026-04-30 18:58 34.82122 -116.31382 22953 ft 285 kts 75°
2026-04-30 18:58 34.82514 -116.29019 22952 ft 284 kts 75°
2026-04-30 18:59 34.83290 -116.24310 22943 ft 283 kts 75°
2026-04-30 19:00 34.84438 -116.17298 22939 ft 282 kts 75°
2026-04-30 19:00 34.84818 -116.14967 22944 ft 282 kts 75°
2026-04-30 19:00 34.85579 -116.10287 22947 ft 281 kts 75°
2026-04-30 19:01 34.86331 -116.05651 22952 ft 280 kts 75°
2026-04-30 19:01 34.86708 -116.03317 22948 ft 280 kts 75°
2026-04-30 19:02 34.87454 -115.98702 22953 ft 279 kts 75°
2026-04-30 19:02 34.88199 -115.94075 22958 ft 278 kts 75°
2026-04-30 19:03 34.88940 -115.89459 22972 ft 277 kts 75°
2026-04-30 19:03 34.89674 -115.84882 22975 ft 276 kts 75°
2026-04-30 19:04 34.90405 -115.80304 22976 ft 275 kts 76°
2026-04-30 19:04 34.91131 -115.75751 22966 ft 275 kts 75°
2026-04-30 19:05 34.91859 -115.71174 22968 ft 275 kts 76°
2026-04-30 19:05 34.92582 -115.66612 22970 ft 274 kts 75°
2026-04-30 19:06 34.93303 -115.62057 22979 ft 274 kts 75°
2026-04-30 19:06 34.93658 -115.59808 22982 ft 273 kts 75°
2026-04-30 19:06 34.94376 -115.55253 22989 ft 273 kts 76°
2026-04-30 19:07 34.95084 -115.50745 22999 ft 272 kts 75°
2026-04-30 19:07 34.95439 -115.48480 23002 ft 271 kts 75°
2026-04-30 19:08 34.96146 -115.43969 23000 ft 271 kts 75°
2026-04-30 19:08 34.96848 -115.39479 22997 ft 270 kts 76°
2026-04-30 19:08 34.97198 -115.37233 22996 ft 269 kts 75°
2026-04-30 19:09 34.97895 -115.32752 22994 ft 268 kts 76°
2026-04-30 19:09 34.98241 -115.30527 22993 ft 267 kts 76°
2026-04-30 19:09 34.98586 -115.28302 22990 ft 267 kts 76°
2026-04-30 19:10 34.99268 -115.23893 22990 ft 266 kts 76°
2026-04-30 19:10 34.99955 -115.19450 22986 ft 266 kts 77°
2026-04-30 19:11 35.00294 -115.17248 22987 ft 266 kts 76°
2026-04-30 19:11 35.00975 -115.12820 22986 ft 265 kts 76°
2026-04-30 19:11 35.01313 -115.10619 22986 ft 265 kts 76°
2026-04-30 19:12 35.01650 -115.08421 22986 ft 264 kts 76°
2026-04-30 19:12 35.01987 -115.06224 22982 ft 264 kts 76°
2026-04-30 19:12 35.02327 -115.03999 22982 ft 264 kts 76°
2026-04-30 19:13 35.02994 -114.99630 22978 ft 263 kts 76°
2026-04-30 19:13 35.03252 -114.95172 22976 ft 264 kts 87°
2026-04-30 19:13 35.03245 -114.92931 22977 ft 264 kts 87°
2026-04-30 19:14 35.03238 -114.90706 22976 ft 263 kts 87°
2026-04-30 19:14 35.03233 -114.88493 22978 ft 263 kts 87°
2026-04-30 19:14 35.03228 -114.86272 22976 ft 262 kts 87°
2026-04-30 19:14 35.03225 -114.84058 22975 ft 262 kts 86°
2026-04-30 19:15 35.03222 -114.81838 22979 ft 261 kts 86°
2026-04-30 19:15 35.03223 -114.77447 22469 ft 255 kts 87°
2026-04-30 19:15 35.03224 -114.75294 22044 ft 253 kts 87°
2026-04-30 19:16 35.03225 -114.73181 21602 ft 252 kts 87°
2026-04-30 19:16 35.03224 -114.71059 21149 ft 251 kts 86°
2026-04-30 19:16 35.03221 -114.66797 20223 ft 252 kts 88°
2026-04-30 19:17 35.03218 -114.64666 19755 ft 253 kts 87°
2026-04-30 19:17 35.03212 -114.60368 18819 ft 256 kts 88°
2026-04-30 19:17 35.03207 -114.58203 18347 ft 258 kts 88°
2026-04-30 19:18 35.03199 -114.54547 17530 ft 262 kts 89°
2026-04-30 19:18 35.03192 -114.51604 16884 ft 262 kts 89°
2026-04-30 19:18 35.03186 -114.49381 16406 ft 263 kts 88°
2026-04-30 19:19 35.03180 -114.47156 15908 ft 264 kts 88°
2026-04-30 19:19 35.03172 -114.44898 15420 ft 265 kts 88°
2026-04-30 19:19 35.03156 -114.40422 14457 ft 265 kts 89°
2026-04-30 19:20 35.03149 -114.38213 13985 ft 263 kts 88°
2026-04-30 19:20 35.03141 -114.36001 13504 ft 259 kts 88°
2026-04-30 19:20 35.03123 -114.31683 12579 ft 251 kts 89°
2026-04-30 19:21 35.03114 -114.29568 12130 ft 246 kts 89°
2026-04-30 19:21 35.03095 -114.25498 11264 ft 237 kts 89°
2026-04-30 19:22 35.03075 -114.21570 10434 ft 228 kts 88°
2026-04-30 19:22 35.05221 -114.17201 9217 ft 201 kts 36°
2026-04-30 19:23 35.08578 -114.14192 8145 ft 200 kts 36°
2026-04-30 19:24 35.10836 -114.12170 7433 ft 200 kts 38°
2026-04-30 19:24 35.11862 -114.11028 7142 ft 197 kts 44°
2026-04-30 19:24 35.13744 -114.08723 6603 ft 188 kts 44°
2026-04-30 19:25 35.16425 -114.05442 5882 ft 171 kts 43°
2026-04-30 19:26 35.18093 -114.03395 5406 ft 170 kts 43°
2026-04-30 19:26 35.19739 -114.01376 4939 ft 165 kts 44°
2026-04-30 19:26 35.20545 -114.00389 4710 ft 162 kts 43°
2026-04-30 19:27 35.22098 -113.98493 4279 ft 155 kts 41°
2026-04-30 19:27 35.23608 -113.96654 3879 ft 153 kts 40°
2026-04-30 19:28 35.24389 -113.95751 3656 ft 154 kts 42°
2026-04-30 19:28 35.25844 -113.93971 3423 ft 132 kts 45°
2026-04-30 19:29 35.26430 -113.93260 3407 ft 13 kts 38°
2026-04-30 19:29 35.26500 -113.93268 3406 ft 9 kts 326°
2026-04-30 19:30 35.26495 -113.93433 3404 ft 9 kts 227°
2026-04-30 19:30 35.26384 -113.93562 3406 ft 11 kts 219°
2026-04-30 19:31 35.26248 -113.93724 3410 ft 15 kts 226°
2026-04-30 19:31 35.26173 -113.93822 3412 ft 16 kts 225°
2026-04-30 19:31 35.26008 -113.94014 3417 ft 16 kts 224°
2026-04-30 19:32 35.25924 -113.94121 3420 ft 17 kts 228°
2026-04-30 19:32 35.25848 -113.94218 3421 ft 14 kts 220°
2026-04-30 19:32 35.25786 -113.94287 3422 ft 7 kts 229°
2026-04-30 19:32 35.25790 -113.94339 3421 ft 6 kts 315°
2026-04-30 19:33 35.25819 -113.94352 3420 ft 3 kts 30°
2026-04-30 19:33 35.25836 -113.94333 3420 ft 3 kts 42°
2026-04-30 19:33 35.25859 -113.94323 3418 ft 5 kts 333°
2026-04-30 19:33 35.25870 -113.94357 3417 ft 3 kts 259°
2026-04-30 19:34 35.25867 -113.94365 3417 ft 0 kts 227°